Powrót do katalogu

SL-6 R/B(2)

AktywnyHEO
NORAD 17081·ROCKET BODY·🇷🇺 Russia

Wystrzelony Nov 15, 1986 z Plesetsk Cosmodrome

Loading…

Następne Przeloty (najbliższe 24 godziny)

TLE

ŚwieżeSource: Space-Track

Epoka: Sep 13, 2026, 14:04 UTC

1 17081U 86089D   26256.58633836  .00000118  00000-0  00000-0 0  9991
2 17081  63.5163 117.8513 7023888 252.4304  24.8727  1.95705313284531

Śledź SL-6 R/B(2) w czasie rzeczywistym z AllMySat

Download on the App Store